星链-32874 (STARLINK-32874)

导读 | 豆包AI

STARLINK-32874是美国SpaceX公司星链(Starlink)星座的成员卫星,于2025年2月11日发射入轨。星链计划旨在构建全球低轨卫星互联网,为偏远地区提供高速宽带服务。该卫星属于低轨通信卫星,采用平板设计、氪霍尔推进器,具备自主避撞能力,寿命末期会主动离轨再入大气层焚毁,是SpaceX全球卫星互联网组网的重要一环。

基本信息
目录编号:
62954
目录名称:
STARLINK-32874
国际标识:
2025-029G
轨道中心:
EARTH
卫星名称:
星链-32874
卫星全名:
星链-32874 (STARLINK-32874)
卫星状态:
在轨 (已飞行397 天)
发射日期:
2025-02-11 UTC
国别 :
美国 (US)
星等 :
--
轨道信息
数据来源 国际轨道数据
星历时间: 2026-03-14T22:25:59+0800
11小时前
查看轨道信息
半长轴: 6853.301km
偏心率: 0.0001259
轨道倾角: 53.157°
近地点辐角 90.769°
升交点赤经 207.224°
平近点角 269.345°
近地点: 474.301km
远地点: 476.027km
周期: 94.104分钟
每日圈数: 15.302172
详细信息
固有亮度:
5
最大亮度:
2.5
卫星平台:
Starlink V1.0
覆盖范围:
全球
运营商:
太空探索技术公司
运营商所在国:
美国
制造商(研发单位):
太空探索技术公司
制造商所在国:
美国
使用方式:
暂无
卫星简介
Starlink 计划是 SpaceX 推出的全球卫星互联网项目,通过发射低轨道卫星,为全球尤其是偏远地区提供高速、低延迟的互联网服务。自 2019 年起,Starlink 已部署数千颗卫星,旨在缩小全球数字鸿沟,推动互联网普及。该项目还为军事、航空等行业提供通信支持,带来广泛经济效益。
2D轨道图
3D轨道图
轨道高度分析图
轨道倾角分析图
轨道综合分析图
查看轨道综合分析图